ECMWFNIL_925_temp_132.txt.gz
Temp
18 18 18 18 18 18 18 19 19 19 18 18 18 18 17 17 17 17 17 17 17 16 16 16 16 16 16 16 16 16 16 16 16 16 16 16 16 16 16 16 16 16
17 18 18 18 18 18 18 19 19 19 18 18 18 18 17 17 17 17 16 16 16 16 16 16 16 16 16 16 16 16 16 16 16 16 16 16 16 16 16 16 16 16
17 17 18 17 18 18 18 18 19 19 18 18 18 17 17 17 17 17 16 16 16 16 16 16 16 16 15 15 15 15 15 15 15 15 15 16 16 16 16 16 16 16
17 17 17 17 18 18 18 18 18 18 18 18 18 17 17 17 17 17 16 16 16 16 16 16 15 15 15 15 15 15 15 15 15 15 15 15 15 15 15 15 15 15
17 17 17 17 17 18 18 18 18 17 18 18 18 17 17 17 16 16 16 16 16 16 16 15 15 15 15 15 15 14 14 14 14 14 15 15 15 15 15 15 15 15
16 17 17 17 17 18 17 18 18 18 17 17 17 17 17 17 16 16 16 16 16 16 15 15 15 15 15 14 14 14 14 14 14 14 14 14 15 14 14 14 14 14
16 16 16 17 17 17 17 17 17 17 17 17 17 17 17 16 16 16 16 16 16 15 15 15 15 15 14 14 14 14 14 14 14 14 14 14 14 14 14 14 14 14
16 16 16 16 17 17 17 17 17 17 17 17 17 17 17 16 16 16 16 15 15 15 15 15 14 14 14 14 14 14 14 13 13 13 13 13 14 14 13 13 13 13
16 16 16 16 16 16 16 17 17 17 17 17 17 17 16 16 16 16 15 15 15 15 15 14 14 14 14 14 14 13 13 13 13 13 13 13 13 13 13 13 13 13
16 16 16 16 16 16 16 16 17 17 17 17 17 16 16 16 16 15 15 15 15 15 15 14 14 14 14 14 13 13 13 13 13 13 13 13 13 13 13 13 12 12
16 16 16 16 16 16 16 16 17 17 16 16 16 16 16 16 16 15 15 15 15 15 14 14 14 14 14 13 13 13 13 13 13 13 13 13 13 13 13 12 12 12
16 16 16 16 16 16 16 16 16 16 16 16 16 16 16 16 15 15 15 15 15 15 14 14 14 14 14 13 13 13 12 12 12 12 12 12 12 12 12 12 12 12
16 16 16 16 16 16 16 16 16 16 16 16 16 16 16 16 16 15 15 15 15 14 14 14 14 14 13 13 13 13 12 12 12 12 12 12 12 12 12 12 12 12
16 16 16 16 16 16 16 16 16 16 16 16 16 16 16 16 16 16 15 15 14 14 14 14 14 13 13 13 12 12 12 12 12 12 12 11 11 11 11 11 11 11
16 16 16 16 16 16 16 15 15 15 15 15 16 16 16 16 16 16 15 15 14 14 14 14 14 13 13 13 12 12 12 12 12 12 11 11 11 11 11 11 11 11
16 16 16 16 16 16 15 15 15 15 15 15 16 16 16 16 16 16 15 15 14 14 14 13 13 13 13 13 12 12 12 12 12 11 11 11 11 11 11 11 11 11
16 16 16 16 15 15 15 15 15 15 15 15 16 16 16 16 16 15 15 15 14 14 14 13 13 13 13 12 12 12 12 12 11 11 11 11 11 11 11 10 10 10
16 16 16 16 15 15 15 15 15 15 14 15 15 15 15 15 15 15 15 15 14 14 14 14 14 13 13 12 12 12 12 12 11 11 11 11 11 11 11 10 10 10
16 16 16 16 15 15 15 15 15 14 14 14 15 15 14 15 15 15 14 14 14 14 14 14 14 13 13 12 12 12 12 11 11 11 11 11 11 11 11 10 10 10
16 16 16 16 15 15 15 15 14 14 14 14 14 14 14 14 15 14 14 14 14 14 14 14 13 13 13 12 12 12 12 11 11 11 11 11 11 11 10 10 10 10
16 16 16 15 15 15 15 14 14 14 14 14 14 14 14 14 15 14 14 14 14 14 14 14 13 13 13 12 12 12 11 11 11 11 11 11 11 10 10 10 10 10
16 16 16 15 15 15 14 14 14 14 14 14 14 13 13 14 14 14 14 14 14 14 14 13 13 13 12 12 12 12 11 11 11 11 11 11 11 10 10 10 10 9
16 16 15 15 15 14 14 14 14 14 14 14 13 12 12 13 13 13 13 14 14 14 14 13 13 13 12 12 12 12 11 11 11 10 11 11 11 10 10 10 10 9
16 16 16 15 15 14 14 14 14 14 14 14 13 12 12 12 13 12 13 14 14 14 14 14 13 13 12 12 12 11 11 11 11 10 10 10 10 10 10 10 10 9
16 16 16 15 15 14 14 14 14 14 13 13 13 13 12 12 13 13 13 14 14 14 14 14 13 13 13 12 12 11 11 11 11 10 10 10 10 10 10 10 10 9
16 16 15 15 15 14 14 15 14 13 13 13 12 12 12 12 13 13 13 14 14 13 13 13 13 13 13 12 12 11 11 11 11 10 10 10 10 10 10 10 9 9

ECMWFNIL_925_temp_138.txt.gz
Temp
21 22 22 21 21 22 22 22 22 21 21 21 20 20 20 19 19 19 19 18 18 18 18 18 18 18 18 18 18 18 17 17 17 17 17 17 17 18 18 18 17 17
21 21 22 22 21 21 22 22 21 21 21 20 20 20 20 20 19 19 19 19 18 18 18 18 18 18 18 17 17 17 17 17 17 17 17 17 17 18 17 17 17 17
21 21 21 21 21 21 21 21 21 21 20 20 20 20 20 20 20 19 19 19 18 18 18 18 18 18 18 17 17 17 17 17 17 17 17 17 17 17 17 17 17 17
21 21 21 21 21 21 21 20 20 21 21 20 20 20 20 20 19 19 19 18 18 18 18 18 18 18 18 17 17 17 17 17 17 17 17 17 17 17 17 17 17 17
22 21 21 21 21 21 21 20 21 21 21 20 20 20 20 19 19 19 18 18 18 18 18 18 18 17 17 17 17 17 17 17 18 17 17 17 17 17 17 17 17 17
22 22 22 21 21 21 21 20 21 21 21 20 20 20 19 19 19 19 19 18 18 18 18 17 17 17 17 17 17 17 17 17 17 16 16 17 17 16 16 16 16 16
21 22 22 21 21 21 21 21 21 21 21 20 20 20 19 19 19 19 19 19 19 18 18 18 17 17 17 17 17 17 17 17 17 16 16 17 16 16 15 15 16 16
21 21 22 21 21 21 21 21 21 21 21 20 20 19 19 19 19 19 19 19 19 19 18 18 18 17 17 17 17 16 16 16 16 16 16 16 16 16 15 15 15 16
21 21 22 22 21 21 21 21 21 21 21 21 20 19 19 19 19 19 19 19 19 19 18 18 18 17 17 17 17 16 16 16 16 16 16 16 16 16 16 15 15 16
21 21 22 22 21 21 21 20 21 21 20 21 20 20 19 19 19 19 19 19 19 19 18 18 18 17 17 16 17 16 16 16 16 15 16 15 15 16 16 15 15 16
21 21 21 21 21 21 20 20 20 20 20 20 20 20 19 19 19 19 19 19 18 18 19 18 18 17 17 16 16 16 16 16 16 15 15 15 15 16 15 15 15 15
21 21 21 21 21 21 20 20 20 20 20 20 20 20 19 19 19 19 19 19 18 18 19 18 18 17 17 17 16 16 16 16 16 15 15 15 15 15 15 15 15 15
21 21 21 21 21 20 20 20 20 20 20 20 20 20 20 19 19 18 18 19 19 18 18 18 18 17 17 17 16 16 16 16 15 15 15 15 15 15 15 15 15 15
21 21 21 21 20 20 20 20 20 20 20 20 20 20 20 19 19 18 18 18 18 18 18 18 18 17 17 16 16 16 16 15 15 15 15 15 14 15 15 15 15 15
21 20 20 20 20 20 19 19 19 19 19 19 20 20 20 19 19 18 18 18 18 18 18 17 17 17 16 16 16 16 16 15 15 14 14 14 14 14 14 14 14 14
21 20 20 20 20 19 19 19 19 19 19 19 19 19 19 19 19 18 17 17 17 17 17 17 16 16 16 16 16 16 15 15 15 14 14 14 14 14 14 14 14 14
20 20 20 19 19 19 19 19 19 19 19 19 19 19 19 19 19 18 17 17 17 17 16 16 16 16 16 16 16 15 15 15 14 14 14 14 14 14 14 13 13 13
20 20 19 19 19 19 19 19 19 19 19 19 19 18 18 18 18 17 17 17 17 17 16 16 16 16 16 16 15 15 15 14 14 14 14 14 14 14 14 13 13 13
20 19 19 19 19 19 18 18 18 19 19 19 19 18 18 18 17 17 16 16 16 16 16 16 16 16 17 16 15 15 14 14 14 14 14 14 14 14 14 14 13 13
20 19 19 19 19 19 18 18 18 18 19 19 19 18 18 18 17 16 16 16 16 16 16 16 16 16 17 16 15 15 14 14 14 14 14 14 14 14 14 14 13 13
20 19 19 19 18 18 18 18 18 19 19 18 18 17 17 17 17 16 16 16 16 16 16 16 15 16 17 16 15 15 14 13 14 14 14 14 14 13 13 13 13 13
19 19 19 18 18 17 17 18 18 18 18 18 18 18 17 17 17 16 15 15 16 16 16 15 15 16 17 16 15 15 14 13 13 13 13 14 13 13 13 13 13 13
19 19 18 17 17 17 17 18 18 18 18 18 18 18 18 17 16 15 15 15 15 15 15 15 15 16 17 16 15 14 13 13 13 14 14 13 13 13 13 13 13 13
19 19 18 17 17 17 17 18 18 18 18 18 18 18 18 17 16 15 15 15 15 15 15 15 15 16 17 16 15 14 13 13 13 14 14 13 13 13 13 13 13 12
19 18 18 17 17 17 17 17 17 17 18 17 17 17 17 17 17 15 14 15 15 15 15 15 15 16 17 16 15 14 13 13 14 14 14 13 13 13 13 13 13 12
19 18 18 17 17 17 17 17 17 17 18 18 17 17 18 17 17 16 15 14 15 15 15 15 15 16 16 15 15 14 13 13 14 14 14 13 14 13 13 13 12 11

ECMWFNIL_925_temp_141.txt.gz
Temp
23 23 23 23 23 23 23 23 23 22 22 22 21 21 21 21 21 21 20 20 20 19 19 19 19 19 19 19 18 18 19 19 19 19 18 18 18 18 18 18 18 19
23 23 23 23 23 23 23 23 23 23 22 22 21 21 21 21 21 21 20 20 19 19 19 19 19 19 19 18 18 18 19 19 18 18 18 18 18 18 18 18 18 18
23 23 23 23 23 23 23 22 22 23 22 22 22 22 21 21 21 21 20 20 20 19 19 19 19 19 18 18 19 19 19 19 18 18 18 18 18 18 18 18 18 18
23 23 23 23 23 23 23 23 22 22 22 22 22 22 22 21 21 21 20 20 19 19 19 19 19 19 19 19 19 19 19 19 19 19 18 18 18 18 18 18 18 19
23 23 23 23 23 23 23 23 23 23 23 22 22 22 21 21 21 21 20 20 19 19 19 19 19 19 19 19 19 19 19 19 19 19 18 18 18 18 18 18 18 18
23 23 23 23 23 23 23 23 23 23 23 22 22 22 22 21 21 21 21 20 20 20 20 19 19 19 19 19 19 19 19 19 19 19 19 19 19 19 19 18 18 18
23 23 23 23 23 23 23 23 23 23 23 22 22 22 22 22 21 21 21 21 20 20 20 20 20 20 20 20 19 19 19 19 19 19 19 19 19 19 19 18 18 18
23 23 23 23 23 23 23 23 23 23 22 22 22 22 22 22 22 21 21 21 21 21 20 20 20 20 20 20 19 19 19 19 19 19 19 19 19 19 19 19 19 19
23 23 23 23 23 23 23 23 23 22 22 22 22 22 22 22 22 22 22 21 21 21 21 20 20 20 20 19 19 19 19 19 19 19 19 19 19 20 20 20 19 19
23 23 23 23 23 23 23 23 23 22 22 22 22 22 22 22 22 22 22 22 21 21 21 21 20 20 19 19 19 19 19 19 19 19 19 19 19 20 20 20 19 18
23 23 23 23 23 23 23 23 23 22 22 22 22 22 22 22 22 22 22 22 22 21 21 21 20 20 20 19 19 19 19 19 19 19 19 19 19 19 19 19 19 18
23 23 23 23 23 23 23 23 22 22 22 22 22 23 23 22 23 23 23 22 22 22 21 21 21 20 20 19 19 19 19 19 19 18 19 19 19 19 19 19 18 17
23 23 23 23 23 23 23 22 22 22 22 22 22 23 23 23 23 23 23 23 22 22 22 22 21 20 20 20 19 19 19 19 19 19 19 19 18 18 18 18 18 17
23 23 23 23 23 23 22 22 22 22 22 22 22 22 23 23 23 23 23 22 22 22 22 22 21 21 20 20 20 19 19 19 19 19 19 19 18 18 18 17 17 17
23 23 23 23 23 23 23 22 22 22 22 22 22 22 23 23 23 23 23 22 22 22 22 22 21 21 20 20 19 19 19 19 19 19 18 18 18 17 17 17 17 17
23 23 23 23 23 23 23 22 22 21 22 22 22 22 23 23 22 23 23 22 22 22 22 22 21 21 20 20 20 19 19 19 18 18 18 18 17 17 17 17 17 17
24 23 23 23 23 23 22 22 22 21 21 21 22 22 22 22 22 22 23 22 22 22 22 21 21 20 20 20 19 19 19 19 18 18 18 18 17 17 17 17 16 17
24 24 24 23 23 23 22 22 21 21 21 21 21 21 22 22 22 22 23 22 22 22 22 21 21 20 20 20 19 19 19 19 18 18 17 17 17 17 17 16 16 16
24 24 24 23 23 23 22 22 21 21 20 21 21 21 21 21 21 22 22 22 21 22 22 22 21 20 20 19 19 18 18 18 18 18 17 17 17 16 16 16 16 16
25 24 24 23 23 23 22 21 21 20 20 20 20 20 21 21 21 21 22 21 21 21 21 21 20 19 19 19 18 18 17 17 18 18 17 17 16 16 16 16 16 16
25 24 24 23 23 22 22 21 21 20 20 20 20 20 20 20 20 20 21 21 20 20 20 20 19 18 18 18 17 17 17 17 17 18 17 17 16 16 16 16 16 15
25 24 24 23 23 22 21 21 20 20 19 19 20 20 20 20 20 20 20 20 20 20 20 19 18 17 18 18 17 17 16 16 16 17 17 17 16 16 16 16 16 15
25 24 23 23 23 22 21 20 20 19 19 19 19 20 19 19 19 19 19 20 20 19 19 19 17 17 18 17 17 17 16 16 16 17 17 17 16 16 15 16 15 15
24 23 23 22 22 22 21 20 20 19 19 19 19 19 19 19 19 19 19 19 19 19 19 18 17 17 17 17 17 17 16 15 15 16 17 17 16 16 15 15 15 15
24 23 22 22 22 22 21 20 19 19 19 19 19 20 19 19 19 19 19 19 19 18 18 18 17 17 17 17 17 17 16 15 15 16 17 17 16 16 15 15 15 15
24 23 23 22 21 21 20 19 19 19 19 19 19 20 20 19 19 19 18 19 18 18 18 17 17 17 17 17 17 17 16 15 15 16 17 17 16 16 15 15 15 14

ECMWFNIL_925_temp_144.txt.gz
Temp
22 22 23 23 23 23 22 22 22 22 22 21 21 21 21 21 21 21 21 21 21 20 20 20 19 19 19 19 19 20 19 19 19 19 19 18 18 19 18 18 19 19
23 23 23 23 23 23 22 22 22 22 22 22 21 21 21 21 21 21 21 20 20 20 20 20 19 19 19 19 20 19 19 19 19 19 18 18 18 18 18 18 18 18
23 23 23 23 23 23 23 22 22 22 22 22 21 21 21 21 21 21 21 20 20 20 20 19 19 19 19 19 20 19 19 19 19 19 18 18 18 18 18 18 18 18
23 23 23 23 23 23 23 23 22 22 22 22 22 21 21 21 21 21 21 21 20 20 20 19 19 19 20 20 19 19 19 19 19 19 18 18 18 18 18 18 18 18
23 23 23 23 23 23 23 23 23 22 22 22 22 22 21 21 21 21 21 21 20 20 20 19 19 19 19 19 19 19 18 18 18 19 19 18 18 18 18 18 18 18
23 23 23 23 23 23 23 23 23 23 22 22 22 22 21 21 21 21 21 21 20 20 20 19 19 19 19 19 19 19 18 18 18 18 18 18 18 18 18 18 18 18
23 23 23 23 23 23 23 23 23 23 23 22 22 22 22 21 21 21 21 21 20 20 20 19 19 19 19 19 19 19 19 18 18 18 18 18 18 18 18 18 18 18
23 23 23 23 23 23 23 23 23 23 23 22 22 22 22 22 21 21 21 21 20 20 20 20 19 19 19 19 19 19 19 19 19 19 19 19 19 18 18 19 19 19
23 23 23 23 23 23 23 23 23 23 23 23 22 22 22 22 21 21 21 21 21 20 20 20 20 19 19 19 19 19 19 19 19 19 19 19 19 19 19 19 19 19
23 23 23 23 23 23 23 23 23 23 23 23 23 22 22 22 22 22 21 21 21 21 20 20 20 20 20 20 19 19 19 19 19 19 19 19 19 19 19 19 19 19
23 23 23 23 23 23 23 23 23 23 23 23 23 22 22 22 22 22 22 22 21 21 21 21 20 20 20 20 20 20 19 19 19 19 19 19 19 19 19 19 19 19
23 23 23 23 23 23 23 23 23 23 23 23 23 23 22 22 22 22 22 22 22 21 21 21 21 20 20 20 20 20 19 19 19 19 19 19 19 19 19 19 20 20
23 23 23 23 23 23 23 23 23 23 23 23 23 23 22 22 22 22 22 22 22 22 22 22 21 21 20 20 20 20 20 20 20 20 19 19 19 19 19 19 19 20
23 23 23 23 23 23 23 23 23 23 23 23 23 22 23 23 23 23 22 22 22 22 22 22 22 21 21 20 20 20 20 20 20 20 19 19 19 19 19 19 19 19
24 24 23 23 23 23 23 23 23 23 23 23 22 22 23 23 23 23 22 22 23 23 23 22 22 21 21 20 20 20 20 20 19 19 19 19 19 19 19 19 19 19
24 24 23 23 23 23 23 23 23 23 23 23 22 22 23 23 23 23 22 22 23 23 23 23 22 22 21 21 20 20 20 19 19 19 19 19 19 19 19 19 19 19
24 24 23 23 23 23 23 23 23 23 23 22 22 22 22 23 23 23 23 23 23 23 23 23 22 22 22 21 20 20 20 19 19 19 19 19 19 19 19 19 18 18
24 24 23 23 23 23 23 23 23 23 22 22 22 22 22 22 23 23 23 23 23 23 23 23 22 22 22 21 20 20 20 19 19 19 19 19 19 19 19 18 18 18
24 24 24 23 23 23 23 23 23 23 22 22 22 22 22 22 22 22 23 23 23 23 23 23 22 22 22 21 21 20 20 19 19 19 19 19 18 18 18 18 18 17
24 24 24 23 23 23 23 23 23 23 22 22 22 22 22 22 22 22 22 23 23 22 22 22 22 22 22 21 21 20 20 19 19 19 19 18 18 18 18 18 17 17
23 23 23 23 23 23 23 23 23 23 22 22 22 22 22 22 22 22 22 22 22 22 22 22 22 22 22 21 21 20 20 19 19 19 18 18 18 18 18 18 17 17
22 22 22 22 23 24 23 23 23 23 22 22 22 22 22 21 22 22 22 22 22 22 22 22 22 22 22 21 21 20 20 19 19 19 18 18 18 18 17 17 17 17
22 21 21 22 23 23 23 23 23 22 22 22 21 21 21 21 21 21 21 21 22 22 22 22 22 21 21 21 21 20 20 19 19 18 18 18 18 17 17 17 17 16
23 22 21 22 23 23 23 23 23 22 22 21 21 21 21 21 21 21 21 21 21 21 22 21 21 21 21 20 20 20 19 19 19 18 18 17 17 17 17 17 17 16
23 22 22 22 23 23 23 23 22 22 22 21 21 21 21 21 21 21 21 21 21 21 21 21 20 20 20 20 20 19 19 19 18 18 17 17 17 17 17 17 16 16
24 23 22 23 24 24 23 23 22 22 21 21 20 21 21 20 20 20 20 20 20 20 20 20 20 19 19 19 19 19 19 18 18 17 17 17 17 17 17 16 16 16